Year,Month,Day,Hour,Minute,Value (Times are PST for temperature in C)
2017,07,06,00,00,20.30
2017,07,06,00,01,20.20
2017,07,06,00,02,20.20
2017,07,06,00,03,20.10
2017,07,06,00,04,20.10
2017,07,06,00,05,20.10
2017,07,06,00,06,20.10
2017,07,06,00,07,20.20
2017,07,06,00,08,20.20
2017,07,06,00,09,20.20
2017,07,06,00,10,20.20
2017,07,06,00,11,20.20
2017,07,06,00,12,20.20
2017,07,06,00,13,20.20
2017,07,06,00,14,20.10
2017,07,06,00,15,20.10
2017,07,06,00,16,20.00
2017,07,06,00,17,19.90
2017,07,06,00,18,19.70
2017,07,06,00,19,19.60
2017,07,06,00,20,19.40
2017,07,06,00,21,19.30
2017,07,06,00,22,19.20
2017,07,06,00,23,19.10
2017,07,06,00,24,19.00
2017,07,06,00,25,19.00
2017,07,06,00,26,18.90
2017,07,06,00,27,18.80
2017,07,06,00,28,18.80
2017,07,06,00,29,18.70
2017,07,06,00,30,18.70
2017,07,06,00,31,18.60
2017,07,06,00,32,18.60
2017,07,06,00,33,18.50
2017,07,06,00,34,18.40
2017,07,06,00,35,18.40
2017,07,06,00,36,18.30
2017,07,06,00,37,18.30
2017,07,06,00,38,18.20
2017,07,06,00,39,18.20
2017,07,06,00,40,18.10
2017,07,06,00,41,18.10
2017,07,06,00,42,18.10
2017,07,06,00,43,18.00
2017,07,06,00,44,18.00
2017,07,06,00,45,17.90
2017,07,06,00,46,17.90
2017,07,06,00,47,17.90
2017,07,06,00,48,17.90
2017,07,06,00,49,17.90
2017,07,06,00,50,17.90
2017,07,06,00,51,17.90
2017,07,06,00,52,17.90
2017,07,06,00,53,17.90
2017,07,06,00,54,17.90
2017,07,06,00,55,17.90
2017,07,06,00,56,17.90
2017,07,06,00,57,17.80
2017,07,06,00,58,17.80
2017,07,06,00,59,17.80
2017,07,06,01,00,17.80
2017,07,06,01,01,17.70
2017,07,06,01,02,17.70
2017,07,06,01,03,17.60
2017,07,06,01,04,17.60
2017,07,06,01,05,17.50
2017,07,06,01,06,17.50
2017,07,06,01,07,17.40
2017,07,06,01,08,17.40
2017,07,06,01,09,17.40
2017,07,06,01,10,17.40
2017,07,06,01,11,17.40
2017,07,06,01,12,17.40
2017,07,06,01,13,17.40
2017,07,06,01,14,17.40
2017,07,06,01,15,17.40
2017,07,06,01,16,17.30
2017,07,06,01,17,17.30
2017,07,06,01,18,17.30
2017,07,06,01,19,17.30
2017,07,06,01,20,17.30
2017,07,06,01,21,17.20
2017,07,06,01,22,17.20
2017,07,06,01,23,17.20
2017,07,06,01,24,17.20
2017,07,06,01,25,17.20
2017,07,06,01,26,17.20
2017,07,06,01,27,17.20
2017,07,06,01,28,17.10
2017,07,06,01,29,17.10
2017,07,06,01,30,17.10
2017,07,06,01,31,17.00
2017,07,06,01,32,17.00
2017,07,06,01,33,17.00
2017,07,06,01,34,16.90
2017,07,06,01,35,16.90
2017,07,06,01,36,16.90
2017,07,06,01,37,16.80
2017,07,06,01,38,16.80
2017,07,06,01,39,16.80
2017,07,06,01,40,16.70
2017,07,06,01,41,16.70
2017,07,06,01,42,16.70
2017,07,06,01,43,16.70
2017,07,06,01,44,16.70
2017,07,06,01,45,16.70
2017,07,06,01,46,16.70
2017,07,06,01,47,16.70
2017,07,06,01,48,16.70
2017,07,06,01,49,16.70
2017,07,06,01,50,16.60
2017,07,06,01,51,16.60
2017,07,06,01,52,16.50
2017,07,06,01,53,16.40
2017,07,06,01,54,16.40
2017,07,06,01,55,16.30
2017,07,06,01,56,16.30
2017,07,06,01,57,16.20
2017,07,06,01,58,16.20
2017,07,06,01,59,16.20
2017,07,06,02,00,16.10
2017,07,06,02,01,16.10
2017,07,06,02,02,16.10
2017,07,06,02,03,16.00
2017,07,06,02,04,16.00
2017,07,06,02,05,15.90
2017,07,06,02,06,15.90
2017,07,06,02,07,15.90
2017,07,06,02,08,15.90
2017,07,06,02,09,15.80
2017,07,06,02,10,15.80
2017,07,06,02,11,15.80
2017,07,06,02,12,15.80
2017,07,06,02,13,15.70
2017,07,06,02,14,15.70
2017,07,06,02,15,15.70
2017,07,06,02,16,15.70
2017,07,06,02,17,15.60
2017,07,06,02,18,15.60
2017,07,06,02,19,15.60
2017,07,06,02,20,15.50
2017,07,06,02,21,15.50
2017,07,06,02,22,15.50
2017,07,06,02,23,15.40
2017,07,06,02,24,15.40
2017,07,06,02,25,15.40
2017,07,06,02,26,15.40
2017,07,06,02,27,15.30
2017,07,06,02,28,15.30
2017,07,06,02,29,15.30
2017,07,06,02,30,15.30
2017,07,06,02,31,15.30
2017,07,06,02,32,15.20
2017,07,06,02,33,15.20
2017,07,06,02,34,15.20
2017,07,06,02,35,15.20
2017,07,06,02,36,15.10
2017,07,06,02,37,15.10
2017,07,06,02,38,15.10
2017,07,06,02,39,15.10
2017,07,06,02,40,15.10
2017,07,06,02,41,15.00
2017,07,06,02,42,15.00
2017,07,06,02,43,15.00
2017,07,06,02,44,14.90
2017,07,06,02,45,14.90
2017,07,06,02,46,14.90
2017,07,06,02,47,14.90
2017,07,06,02,48,14.90
2017,07,06,02,49,14.80
2017,07,06,02,50,14.80
2017,07,06,02,51,14.80
2017,07,06,02,52,14.80
2017,07,06,02,53,14.80
2017,07,06,02,54,14.80
2017,07,06,02,55,14.80
2017,07,06,02,56,14.80
2017,07,06,02,57,14.80
2017,07,06,02,58,14.80
2017,07,06,02,59,14.80
2017,07,06,03,00,14.80
2017,07,06,03,01,14.80
2017,07,06,03,02,14.80
2017,07,06,03,03,14.80
2017,07,06,03,04,14.80
2017,07,06,03,05,14.80
2017,07,06,03,06,14.70
2017,07,06,03,07,14.70
2017,07,06,03,08,14.70
2017,07,06,03,09,14.70
2017,07,06,03,10,14.80
2017,07,06,03,11,14.80
2017,07,06,03,12,14.90
2017,07,06,03,13,14.90
2017,07,06,03,14,15.00
2017,07,06,03,15,15.00
2017,07,06,03,16,15.10
2017,07,06,03,17,15.10
2017,07,06,03,18,15.10
2017,07,06,03,19,15.20
2017,07,06,03,20,15.20
2017,07,06,03,21,15.20
2017,07,06,03,22,15.20
2017,07,06,03,23,15.20
2017,07,06,03,24,15.20
2017,07,06,03,25,15.20
2017,07,06,03,26,15.20
2017,07,06,03,27,15.20
2017,07,06,03,28,15.20
2017,07,06,03,29,15.20
2017,07,06,03,30,15.10
2017,07,06,03,31,15.10
2017,07,06,03,32,15.10
2017,07,06,03,33,15.10
2017,07,06,03,34,15.00
2017,07,06,03,35,15.00
2017,07,06,03,36,15.10
2017,07,06,03,37,15.10
2017,07,06,03,38,15.10
2017,07,06,03,39,15.00
2017,07,06,03,40,15.00
2017,07,06,03,41,15.00
2017,07,06,03,42,14.90
2017,07,06,03,43,14.90
2017,07,06,03,44,14.80
2017,07,06,03,45,14.80
2017,07,06,03,46,14.80
2017,07,06,03,47,14.70
2017,07,06,03,48,14.70
2017,07,06,03,49,14.70
2017,07,06,03,50,14.60
2017,07,06,03,51,14.60
2017,07,06,03,52,14.50
2017,07,06,03,53,14.50
2017,07,06,03,54,14.40
2017,07,06,03,55,14.40
2017,07,06,03,56,14.40
2017,07,06,03,57,14.30
2017,07,06,03,58,14.30
2017,07,06,03,59,14.30
2017,07,06,04,00,14.30
2017,07,06,04,01,14.20
2017,07,06,04,02,14.20
2017,07,06,04,03,14.20
2017,07,06,04,04,14.20
2017,07,06,04,05,14.20
2017,07,06,04,06,14.20
2017,07,06,04,07,14.10
2017,07,06,04,08,14.10
2017,07,06,04,09,14.10
2017,07,06,04,10,14.10
2017,07,06,04,11,14.10
2017,07,06,04,12,14.00
2017,07,06,04,13,14.00
2017,07,06,04,14,14.00
2017,07,06,04,15,13.90
2017,07,06,04,16,13.90
2017,07,06,04,17,13.90
2017,07,06,04,18,13.90
2017,07,06,04,19,13.90
2017,07,06,04,20,13.90
2017,07,06,04,21,13.90
2017,07,06,04,22,13.90
2017,07,06,04,23,13.80
2017,07,06,04,24,13.80
2017,07,06,04,25,13.80
2017,07,06,04,26,13.80
2017,07,06,04,27,13.80
2017,07,06,04,28,13.80
2017,07,06,04,29,13.80
2017,07,06,04,30,13.80
2017,07,06,04,31,13.70
2017,07,06,04,32,13.70
2017,07,06,04,33,13.70
2017,07,06,04,34,13.70
2017,07,06,04,35,13.70
2017,07,06,04,36,13.70
2017,07,06,04,37,13.70
2017,07,06,04,38,13.60
2017,07,06,04,39,13.60
2017,07,06,04,40,13.60
2017,07,06,04,41,13.60
2017,07,06,04,42,13.60
2017,07,06,04,43,13.60
2017,07,06,04,44,13.60
2017,07,06,04,45,13.60
2017,07,06,04,46,13.60
2017,07,06,04,47,13.60
2017,07,06,04,48,13.60
2017,07,06,04,49,13.60
2017,07,06,04,50,13.60
2017,07,06,04,51,13.60
2017,07,06,04,52,13.60
2017,07,06,04,53,13.60
2017,07,06,04,54,13.50
2017,07,06,04,55,13.50
2017,07,06,04,56,13.50
2017,07,06,04,57,13.50
2017,07,06,04,58,13.50
2017,07,06,04,59,13.50
2017,07,06,05,00,13.50
2017,07,06,05,01,13.50
2017,07,06,05,02,13.50
2017,07,06,05,03,13.50
2017,07,06,05,04,13.50
2017,07,06,05,05,13.50
2017,07,06,05,06,13.50
2017,07,06,05,07,13.50
2017,07,06,05,08,13.50
2017,07,06,05,09,13.50
2017,07,06,05,10,13.50
2017,07,06,05,11,13.50
2017,07,06,05,12,13.50
2017,07,06,05,13,13.50
2017,07,06,05,14,13.50
2017,07,06,05,15,13.40
2017,07,06,05,16,13.40
2017,07,06,05,17,13.40
2017,07,06,05,18,13.40
2017,07,06,05,19,13.40
2017,07,06,05,20,13.40
2017,07,06,05,21,13.40
2017,07,06,05,22,13.40
2017,07,06,05,23,13.40
2017,07,06,05,24,13.40
2017,07,06,05,25,13.40
2017,07,06,05,26,13.40
2017,07,06,05,27,13.40
2017,07,06,05,28,13.40
2017,07,06,05,29,13.40
2017,07,06,05,30,13.40
2017,07,06,05,31,13.40
2017,07,06,05,32,13.40
2017,07,06,05,33,13.40
2017,07,06,05,34,13.40
2017,07,06,05,35,13.30
2017,07,06,05,36,13.30
2017,07,06,05,37,13.30
2017,07,06,05,38,13.30
2017,07,06,05,39,13.20
2017,07,06,05,40,13.20
2017,07,06,05,41,13.20
2017,07,06,05,42,13.20
2017,07,06,05,43,13.20
2017,07,06,05,44,13.10
2017,07,06,05,45,13.10
2017,07,06,05,46,13.10
2017,07,06,05,47,13.10
2017,07,06,05,48,13.10
2017,07,06,05,49,13.10
2017,07,06,05,50,13.20
2017,07,06,05,51,13.20
2017,07,06,05,52,13.20
2017,07,06,05,53,13.20
2017,07,06,05,54,13.20
2017,07,06,05,55,13.20
2017,07,06,05,56,13.20
2017,07,06,05,57,13.20
2017,07,06,05,58,13.20
2017,07,06,05,59,13.30
2017,07,06,06,00,13.30
2017,07,06,06,01,13.30
2017,07,06,06,02,13.30
2017,07,06,06,03,13.30
2017,07,06,06,04,13.30
2017,07,06,06,05,13.20
2017,07,06,06,06,13.20
2017,07,06,06,07,13.20
2017,07,06,06,08,13.20
2017,07,06,06,09,13.20
2017,07,06,06,10,13.10
2017,07,06,06,11,13.10
2017,07,06,06,12,13.10
2017,07,06,06,13,13.10
2017,07,06,06,14,13.00
2017,07,06,06,15,13.00
2017,07,06,06,16,13.00
2017,07,06,06,17,13.00
2017,07,06,06,18,13.00
2017,07,06,06,19,12.90
2017,07,06,06,20,12.90
2017,07,06,06,21,12.90
2017,07,06,06,22,12.90
2017,07,06,06,23,12.90
2017,07,06,06,24,12.90
2017,07,06,06,25,12.90
2017,07,06,06,26,12.90
2017,07,06,06,27,12.90
2017,07,06,06,28,12.80
2017,07,06,06,29,12.80
2017,07,06,06,30,12.80
2017,07,06,06,31,12.80
2017,07,06,06,32,12.80
2017,07,06,06,33,12.80
2017,07,06,06,34,12.80
2017,07,06,06,35,12.80
2017,07,06,06,36,12.80
2017,07,06,06,37,12.80
2017,07,06,06,38,12.90
2017,07,06,06,39,12.90
2017,07,06,06,40,13.00
2017,07,06,06,41,13.10
2017,07,06,06,42,13.10
2017,07,06,06,43,13.20
2017,07,06,06,44,13.40
2017,07,06,06,45,13.50
2017,07,06,06,46,13.60
2017,07,06,06,47,13.70
2017,07,06,06,48,13.80
2017,07,06,06,49,14.00
2017,07,06,06,50,14.10
2017,07,06,06,51,14.20
2017,07,06,06,52,14.30
2017,07,06,06,53,14.40
2017,07,06,06,54,14.50
2017,07,06,06,55,14.60
2017,07,06,06,56,14.70
2017,07,06,06,57,14.80
2017,07,06,06,58,14.90
2017,07,06,06,59,15.00
2017,07,06,07,00,15.20
2017,07,06,07,01,15.30
2017,07,06,07,02,15.50
2017,07,06,07,03,15.60
2017,07,06,07,04,15.70
2017,07,06,07,05,15.70
2017,07,06,07,06,15.80
2017,07,06,07,07,15.80
2017,07,06,07,08,15.90
2017,07,06,07,09,16.00
2017,07,06,07,10,16.20
2017,07,06,07,11,16.30
2017,07,06,07,12,16.40
2017,07,06,07,13,16.50
2017,07,06,07,14,16.60
2017,07,06,07,15,16.60
2017,07,06,07,16,16.70
2017,07,06,07,17,16.80
2017,07,06,07,18,16.90
2017,07,06,07,19,16.90
2017,07,06,07,20,16.90
2017,07,06,07,21,16.90
2017,07,06,07,22,17.00
2017,07,06,07,23,17.00
2017,07,06,07,24,17.00
2017,07,06,07,25,17.00
2017,07,06,07,26,17.10
2017,07,06,07,27,17.20
2017,07,06,07,28,17.30
2017,07,06,07,29,17.40
2017,07,06,07,30,17.50
2017,07,06,07,31,17.60
2017,07,06,07,32,17.70
2017,07,06,07,33,17.80
2017,07,06,07,34,17.90
2017,07,06,07,35,17.90
2017,07,06,07,36,18.00
2017,07,06,07,37,18.10
2017,07,06,07,38,18.10
2017,07,06,07,39,18.20
2017,07,06,07,40,18.20
2017,07,06,07,41,18.30
2017,07,06,07,42,18.40
2017,07,06,07,43,18.50
2017,07,06,07,44,18.60
2017,07,06,07,45,18.60
2017,07,06,07,46,18.70
2017,07,06,07,47,18.70
2017,07,06,07,48,18.70
2017,07,06,07,49,18.80
2017,07,06,07,50,18.80
2017,07,06,07,51,18.80
2017,07,06,07,52,18.90
2017,07,06,07,53,18.90
2017,07,06,07,54,18.90
2017,07,06,07,55,19.00
2017,07,06,07,56,19.00
2017,07,06,07,57,19.10
2017,07,06,07,58,19.20
2017,07,06,07,59,19.30
2017,07,06,08,00,19.40
2017,07,06,08,01,19.50
2017,07,06,08,02,19.60
2017,07,06,08,03,19.60
2017,07,06,08,04,19.60
2017,07,06,08,05,19.60
2017,07,06,08,06,19.70
2017,07,06,08,07,19.70
2017,07,06,08,08,19.80
2017,07,06,08,09,19.80
2017,07,06,08,10,19.80
2017,07,06,08,11,19.90
2017,07,06,08,12,19.80
2017,07,06,08,13,19.80
2017,07,06,08,14,19.80
2017,07,06,08,15,19.80
2017,07,06,08,16,19.90
2017,07,06,08,17,19.90
2017,07,06,08,18,20.00
2017,07,06,08,19,20.10
2017,07,06,08,20,20.10
2017,07,06,08,21,20.20
2017,07,06,08,22,20.30
2017,07,06,08,23,20.30
2017,07,06,08,24,20.30
2017,07,06,08,25,20.30
2017,07,06,08,26,20.30
2017,07,06,08,27,20.30
2017,07,06,08,28,20.30
2017,07,06,08,29,20.30
2017,07,06,08,30,20.30
2017,07,06,08,31,20.30
2017,07,06,08,32,20.30
2017,07,06,08,33,20.30
2017,07,06,08,34,20.40
2017,07,06,08,35,20.40
2017,07,06,08,36,20.50
2017,07,06,08,37,20.50
2017,07,06,08,38,20.40
2017,07,06,08,39,20.30
2017,07,06,08,40,20.30
2017,07,06,08,41,20.30
2017,07,06,08,42,20.30
2017,07,06,08,43,20.30
2017,07,06,08,44,20.30
2017,07,06,08,45,20.40
2017,07,06,08,46,20.50
2017,07,06,08,47,20.60
2017,07,06,08,48,20.60
2017,07,06,08,49,20.60
2017,07,06,08,50,20.60
2017,07,06,08,51,20.70
2017,07,06,08,52,20.70
2017,07,06,08,53,20.70
2017,07,06,08,54,20.70
2017,07,06,08,55,20.70
2017,07,06,08,56,20.70
2017,07,06,08,57,20.60
2017,07,06,08,58,20.60
2017,07,06,08,59,20.50
2017,07,06,09,00,20.60
2017,07,06,09,01,20.60
2017,07,06,09,02,20.60
2017,07,06,09,03,20.60
2017,07,06,09,04,20.60
2017,07,06,09,05,20.70
2017,07,06,09,06,20.70
2017,07,06,09,07,20.70
2017,07,06,09,08,20.70
2017,07,06,09,09,20.70
2017,07,06,09,10,20.70
2017,07,06,09,11,20.70
2017,07,06,09,12,20.80
2017,07,06,09,13,20.80
2017,07,06,09,14,20.80
2017,07,06,09,15,20.90
2017,07,06,09,16,20.90
2017,07,06,09,17,20.90
2017,07,06,09,18,20.80
2017,07,06,09,19,20.70
2017,07,06,09,20,20.80
2017,07,06,09,21,20.80
2017,07,06,09,22,20.90
2017,07,06,09,23,21.00
2017,07,06,09,24,21.10
2017,07,06,09,25,21.10
2017,07,06,09,26,21.10
2017,07,06,09,27,21.10
2017,07,06,09,28,21.10
2017,07,06,09,29,21.20
2017,07,06,09,30,21.30
2017,07,06,09,31,21.30
2017,07,06,09,32,21.30
2017,07,06,09,33,21.30
2017,07,06,09,34,21.40
2017,07,06,09,35,21.40
2017,07,06,09,36,21.50
2017,07,06,09,37,21.60
2017,07,06,09,38,21.60
2017,07,06,09,39,21.60
2017,07,06,09,40,21.50
2017,07,06,09,41,21.40
2017,07,06,09,42,21.40
2017,07,06,09,43,21.40
2017,07,06,09,44,21.30
2017,07,06,09,45,21.40
2017,07,06,09,46,21.40
2017,07,06,09,47,21.40
2017,07,06,09,48,21.50
2017,07,06,09,49,21.60
2017,07,06,09,50,21.50
2017,07,06,09,51,21.60
2017,07,06,09,52,21.60
2017,07,06,09,53,21.70
2017,07,06,09,54,21.60
2017,07,06,09,55,21.50
2017,07,06,09,56,21.40
2017,07,06,09,57,21.50
2017,07,06,09,58,21.60
2017,07,06,09,59,21.70
2017,07,06,10,00,21.80
2017,07,06,10,01,21.80
2017,07,06,10,02,21.90
2017,07,06,10,03,21.90
2017,07,06,10,04,21.90
2017,07,06,10,05,22.00
2017,07,06,10,06,22.00
2017,07,06,10,07,22.10
2017,07,06,10,08,22.10
2017,07,06,10,09,22.10
2017,07,06,10,10,22.10
2017,07,06,10,11,22.20
2017,07,06,10,12,22.20
2017,07,06,10,13,22.20
2017,07,06,10,14,22.30
2017,07,06,10,15,22.40
2017,07,06,10,16,22.50
2017,07,06,10,17,22.50
2017,07,06,10,18,22.60
2017,07,06,10,19,22.70
2017,07,06,10,20,22.70
2017,07,06,10,21,22.80
2017,07,06,10,22,22.80
2017,07,06,10,23,22.80
2017,07,06,10,24,22.90
2017,07,06,10,25,23.00
2017,07,06,10,26,23.00
2017,07,06,10,27,23.00
2017,07,06,10,28,22.90
2017,07,06,10,29,22.90
2017,07,06,10,30,22.90
2017,07,06,10,31,22.90
2017,07,06,10,32,22.80
2017,07,06,10,33,22.80
2017,07,06,10,34,22.70
2017,07,06,10,35,22.70
2017,07,06,10,36,22.70
2017,07,06,10,37,22.60
2017,07,06,10,38,22.50
2017,07,06,10,39,22.40
2017,07,06,10,40,22.30
2017,07,06,10,41,22.30
2017,07,06,10,42,22.20
2017,07,06,10,43,22.10
2017,07,06,10,44,22.00
2017,07,06,10,45,21.90
2017,07,06,10,46,22.00
2017,07,06,10,47,22.00
2017,07,06,10,48,22.00
2017,07,06,10,49,22.10
2017,07,06,10,50,22.10
2017,07,06,10,51,22.20
2017,07,06,10,52,22.20
2017,07,06,10,53,22.20
2017,07,06,10,54,22.20
2017,07,06,10,55,22.20
2017,07,06,10,56,22.20
2017,07,06,10,57,22.20
2017,07,06,10,58,22.30
2017,07,06,10,59,22.30
2017,07,06,11,00,22.20
2017,07,06,11,01,22.20
2017,07,06,11,02,22.20
2017,07,06,11,03,22.30
2017,07,06,11,04,22.40
2017,07,06,11,05,22.30
2017,07,06,11,06,22.30
2017,07,06,11,07,22.40
2017,07,06,11,08,22.50
2017,07,06,11,09,22.60
2017,07,06,11,10,22.80
2017,07,06,11,11,22.90
2017,07,06,11,12,22.90
2017,07,06,11,13,22.90
2017,07,06,11,14,22.90
2017,07,06,11,15,22.90
2017,07,06,11,16,23.00
2017,07,06,11,17,23.10
2017,07,06,11,18,23.20
2017,07,06,11,19,23.20
2017,07,06,11,20,23.20
2017,07,06,11,21,23.30
2017,07,06,11,22,23.30
2017,07,06,11,23,23.30
2017,07,06,11,24,23.30
2017,07,06,11,25,23.30
2017,07,06,11,26,23.40
2017,07,06,11,27,23.50
2017,07,06,11,28,23.60
2017,07,06,11,29,23.70
2017,07,06,11,30,23.90
2017,07,06,11,31,24.00
2017,07,06,11,32,24.10
2017,07,06,11,33,24.30
2017,07,06,11,34,24.30
2017,07,06,11,35,24.30
2017,07,06,11,36,24.20
2017,07,06,11,37,24.20
2017,07,06,11,38,24.10
2017,07,06,11,39,24.10
2017,07,06,11,40,24.10
2017,07,06,11,41,24.10
2017,07,06,11,42,24.10
2017,07,06,11,43,24.20
2017,07,06,11,44,24.20
2017,07,06,11,45,24.30
2017,07,06,11,46,24.50
2017,07,06,11,47,24.60
2017,07,06,11,48,24.70
2017,07,06,11,49,24.70
2017,07,06,11,50,24.70
2017,07,06,11,51,24.70
2017,07,06,11,52,24.70
2017,07,06,11,53,24.80
2017,07,06,11,54,24.80
2017,07,06,11,55,24.70
2017,07,06,11,56,24.70
2017,07,06,11,57,24.70
2017,07,06,11,58,24.70
2017,07,06,11,59,24.70
2017,07,06,12,00,24.60
2017,07,06,12,01,24.70
2017,07,06,12,02,24.60
2017,07,06,12,03,24.50
2017,07,06,12,04,24.40
2017,07,06,12,05,24.40
2017,07,06,12,06,24.40
2017,07,06,12,07,24.40
2017,07,06,12,08,24.40
2017,07,06,12,09,24.50
2017,07,06,12,10,24.50
2017,07,06,12,11,24.60
2017,07,06,12,12,24.50
2017,07,06,12,13,24.40
2017,07,06,12,14,24.30
2017,07,06,12,15,24.40
2017,07,06,12,16,24.50
2017,07,06,12,17,24.40
2017,07,06,12,18,24.30
2017,07,06,12,19,24.30
2017,07,06,12,20,24.30
2017,07,06,12,21,24.30
2017,07,06,12,22,24.30
2017,07,06,12,23,24.30
2017,07,06,12,24,24.30
2017,07,06,12,25,24.30
2017,07,06,12,26,24.20
2017,07,06,12,27,24.30
2017,07,06,12,28,24.40
2017,07,06,12,29,24.60
2017,07,06,12,30,24.70
2017,07,06,12,31,24.60
2017,07,06,12,32,24.60
2017,07,06,12,33,24.70
2017,07,06,12,34,24.70
2017,07,06,12,35,24.70
2017,07,06,12,36,24.80
2017,07,06,12,37,24.80
2017,07,06,12,38,24.80
2017,07,06,12,39,24.90
2017,07,06,12,40,24.90
2017,07,06,12,41,24.80
2017,07,06,12,42,24.80
2017,07,06,12,43,24.70
2017,07,06,12,44,24.70
2017,07,06,12,45,24.80
2017,07,06,12,46,24.90
2017,07,06,12,47,25.10
2017,07,06,12,48,25.20
2017,07,06,12,49,25.30
2017,07,06,12,50,25.40
2017,07,06,12,51,25.30
2017,07,06,12,52,25.30
2017,07,06,12,53,25.30
2017,07,06,12,54,25.20
2017,07,06,12,55,25.30
2017,07,06,12,56,25.30
2017,07,06,12,57,25.40
2017,07,06,12,58,25.50
2017,07,06,12,59,25.50
2017,07,06,13,00,25.60
2017,07,06,13,01,25.60
2017,07,06,13,02,25.60
2017,07,06,13,03,25.70
2017,07,06,13,04,25.70
2017,07,06,13,05,25.70
2017,07,06,13,06,25.70
2017,07,06,13,07,25.80
2017,07,06,13,08,25.80
2017,07,06,13,09,25.80
2017,07,06,13,10,25.90
2017,07,06,13,11,25.90
2017,07,06,13,12,25.80
2017,07,06,13,13,25.80
2017,07,06,13,14,25.90
2017,07,06,13,15,26.00
2017,07,06,13,16,26.10
2017,07,06,13,17,26.00
2017,07,06,13,18,25.90
2017,07,06,13,19,25.90
2017,07,06,13,20,25.80
2017,07,06,13,21,25.80
2017,07,06,13,22,25.80
2017,07,06,13,23,25.90
2017,07,06,13,24,25.90
2017,07,06,13,25,25.90
2017,07,06,13,26,25.90
2017,07,06,13,27,25.90
2017,07,06,13,28,25.90
2017,07,06,13,29,25.80
2017,07,06,13,30,25.80
2017,07,06,13,31,25.90
2017,07,06,13,32,26.00
2017,07,06,13,33,26.10
2017,07,06,13,34,26.10
2017,07,06,13,35,26.10
2017,07,06,13,36,26.10
2017,07,06,13,37,26.10
2017,07,06,13,38,26.10
2017,07,06,13,39,26.20
2017,07,06,13,40,26.10
2017,07,06,13,41,26.10
2017,07,06,13,42,26.00
2017,07,06,13,43,25.90
2017,07,06,13,44,25.80
2017,07,06,13,45,25.70
2017,07,06,13,46,25.60
2017,07,06,13,47,25.70
2017,07,06,13,48,25.80
2017,07,06,13,49,25.90
2017,07,06,13,50,26.10
2017,07,06,13,51,26.20
2017,07,06,13,52,26.20
2017,07,06,13,53,26.20
2017,07,06,13,54,26.20
2017,07,06,13,55,26.30
2017,07,06,13,56,26.30
2017,07,06,13,57,26.20
2017,07,06,13,58,26.20
2017,07,06,13,59,26.20
2017,07,06,14,00,26.30
2017,07,06,14,01,26.30
2017,07,06,14,02,26.30
2017,07,06,14,03,26.40
2017,07,06,14,04,26.50
2017,07,06,14,05,26.60
2017,07,06,14,06,26.60
2017,07,06,14,07,26.60
2017,07,06,14,08,26.60
2017,07,06,14,09,26.70
2017,07,06,14,10,26.80
2017,07,06,14,11,26.80
2017,07,06,14,12,26.80
2017,07,06,14,13,26.80
2017,07,06,14,14,26.90
2017,07,06,14,15,26.90
2017,07,06,14,16,27.00
2017,07,06,14,17,27.10
2017,07,06,14,18,27.10
2017,07,06,14,19,27.10
2017,07,06,14,20,27.10
2017,07,06,14,21,27.00
2017,07,06,14,22,26.90
2017,07,06,14,23,26.80
2017,07,06,14,24,26.70
2017,07,06,14,25,26.50
2017,07,06,14,26,26.40
2017,07,06,14,27,26.20
2017,07,06,14,28,26.20
2017,07,06,14,29,26.20
2017,07,06,14,30,26.20
2017,07,06,14,31,26.20
2017,07,06,14,32,26.20
2017,07,06,14,33,26.30
2017,07,06,14,34,26.40
2017,07,06,14,35,26.40
2017,07,06,14,36,26.50
2017,07,06,14,37,26.60
2017,07,06,14,38,26.60
2017,07,06,14,39,26.60
2017,07,06,14,40,26.60
2017,07,06,14,41,26.70
2017,07,06,14,42,26.80
2017,07,06,14,43,26.90
2017,07,06,14,44,26.90
2017,07,06,14,45,26.90
2017,07,06,14,46,26.90
2017,07,06,14,47,26.90
2017,07,06,14,48,26.90
2017,07,06,14,49,26.80
2017,07,06,14,50,26.70
2017,07,06,14,51,26.80
2017,07,06,14,52,26.90
2017,07,06,14,53,26.90
2017,07,06,14,54,26.90
2017,07,06,14,55,27.00
2017,07,06,14,56,27.10
2017,07,06,14,57,27.20
2017,07,06,14,58,27.10
2017,07,06,14,59,27.00
2017,07,06,15,00,26.90
2017,07,06,15,01,26.80
2017,07,06,15,02,26.70
2017,07,06,15,03,26.70
2017,07,06,15,04,26.70
2017,07,06,15,05,26.70
2017,07,06,15,06,26.80
2017,07,06,15,07,26.90
2017,07,06,15,08,27.00
2017,07,06,15,09,27.10
2017,07,06,15,10,27.00
2017,07,06,15,11,27.00
2017,07,06,15,12,26.90
2017,07,06,15,13,26.90
2017,07,06,15,14,27.00
2017,07,06,15,15,27.10
2017,07,06,15,16,27.10
2017,07,06,15,17,27.10
2017,07,06,15,18,27.00
2017,07,06,15,19,27.00
2017,07,06,15,20,27.00
2017,07,06,15,21,27.10
2017,07,06,15,22,27.20
2017,07,06,15,23,27.20
2017,07,06,15,24,27.20
2017,07,06,15,25,27.20
2017,07,06,15,26,27.20
2017,07,06,15,27,27.30
2017,07,06,15,28,27.50
2017,07,06,15,29,27.40
2017,07,06,15,30,27.40
2017,07,06,15,31,27.30
2017,07,06,15,32,27.20
2017,07,06,15,33,27.10
2017,07,06,15,34,27.10
2017,07,06,15,35,27.00
2017,07,06,15,36,27.00
2017,07,06,15,37,27.10
2017,07,06,15,38,27.20
2017,07,06,15,39,27.20
2017,07,06,15,40,27.10
2017,07,06,15,41,27.10
2017,07,06,15,42,27.10
2017,07,06,15,43,27.10
2017,07,06,15,44,27.10
2017,07,06,15,45,27.20
2017,07,06,15,46,27.20
2017,07,06,15,47,27.10
2017,07,06,15,48,27.10
2017,07,06,15,49,27.10
2017,07,06,15,50,27.10
2017,07,06,15,51,27.20
2017,07,06,15,52,27.40
2017,07,06,15,53,27.40
2017,07,06,15,54,27.40
2017,07,06,15,55,27.50
2017,07,06,15,56,27.50
2017,07,06,15,57,27.60
2017,07,06,15,58,27.50
2017,07,06,15,59,27.60
2017,07,06,16,00,27.50
2017,07,06,16,01,27.40
2017,07,06,16,02,27.40
2017,07,06,16,03,27.40
2017,07,06,16,04,27.50
2017,07,06,16,05,27.60
2017,07,06,16,06,27.60
2017,07,06,16,07,27.70
2017,07,06,16,08,27.70
2017,07,06,16,09,27.70
2017,07,06,16,10,27.60
2017,07,06,16,11,27.40
2017,07,06,16,12,27.30
2017,07,06,16,13,27.20
2017,07,06,16,14,27.20
2017,07,06,16,15,27.30
2017,07,06,16,16,27.30
2017,07,06,16,17,27.50
2017,07,06,16,18,27.70
2017,07,06,16,19,27.80
2017,07,06,16,20,27.90
2017,07,06,16,21,27.90
2017,07,06,16,22,27.90
2017,07,06,16,23,27.90
2017,07,06,16,24,28.00
2017,07,06,16,25,28.10
2017,07,06,16,26,28.30
2017,07,06,16,27,28.40
2017,07,06,16,28,28.60
2017,07,06,16,29,28.70
2017,07,06,16,30,28.70
2017,07,06,16,31,28.60
2017,07,06,16,32,28.40
2017,07,06,16,33,28.40
2017,07,06,16,34,28.40
2017,07,06,16,35,28.50
2017,07,06,16,36,28.60
2017,07,06,16,37,28.80
2017,07,06,16,38,28.80
2017,07,06,16,39,28.70
2017,07,06,16,40,28.60
2017,07,06,16,41,28.50
2017,07,06,16,42,28.40
2017,07,06,16,43,28.30
2017,07,06,16,44,28.20
2017,07,06,16,45,28.00
2017,07,06,16,46,27.90
2017,07,06,16,47,27.80
2017,07,06,16,48,27.80
2017,07,06,16,49,27.80
2017,07,06,16,50,27.80
2017,07,06,16,51,27.90
2017,07,06,16,52,28.00
2017,07,06,16,53,28.10
2017,07,06,16,54,28.10
2017,07,06,16,55,28.20
2017,07,06,16,56,28.20
2017,07,06,16,57,28.20
2017,07,06,16,58,28.20
2017,07,06,16,59,28.10
2017,07,06,17,00,28.00
2017,07,06,17,01,27.90
2017,07,06,17,02,27.80
2017,07,06,17,03,27.80
2017,07,06,17,04,27.80
2017,07,06,17,05,27.90
2017,07,06,17,06,27.90
2017,07,06,17,07,27.90
2017,07,06,17,08,27.80
2017,07,06,17,09,27.70
2017,07,06,17,10,27.70
2017,07,06,17,11,27.60
2017,07,06,17,12,27.40
2017,07,06,17,13,27.40
2017,07,06,17,14,27.30
2017,07,06,17,15,27.20
2017,07,06,17,16,27.10
2017,07,06,17,17,27.10
2017,07,06,17,18,27.10
2017,07,06,17,19,27.20